Location: Newark
(52.1752°N, 10.4140°W)
Time: 23:56:45
(UTC+00:00)

N. Korean satellite - Pass Details

Date: 21 November 2019
Orbit: 456 x 506 km, 97.2° (Epoch: 06 December)

Event Time Altitude Azimuth Distance (km) Brightness Sun altitude
Rises 19:03:59 0° 220° (SW) 2,579 10.9 -21.2°
Reaches altitude 10° 19:07:42 10° 260° (W) 1,715 10.5 -21.7°
Maximum altitude 19:08:35 11° 274° (W) 1,675 10.4 -21.9°
Drops below altitude 10° 19:09:29 10° 288° (WNW) 1,723 10.3 -22.0°
Sets 19:13:15 0° 328° (NNW) 2,622 10.7 -22.6°
